{"data":{"norad_id":58625,"intl_designator":"2023-203H","name":"STARLINK-30774","alt_names":[],"object_type":"PAYLOAD","status":"ACTIVE","operator":null,"country":"US","launch_date":"2023-12-23","launch_site_code":"AFETR","launch_vehicle":null,"mission":null,"orbit_class":"UNKNOWN","rcs_meters":null,"size_class":null,"mass_kg":null,"dimensions":null,"purposes":["comms"],"wikipedia_slug":null,"has_3d_model":false,"image_url":null,"decayed_at":null,"tle_current":{"epoch":"2026-05-25T00:10:23.026944Z","epoch_age_seconds":70577,"freshness":"FRESH","line1":"1 58625U 23203H   26145.00721096  .00005876  00000+0  22312-3 0  9997","line2":"2 58625  43.0008 356.0510 0000882 266.4572  93.6179 15.27543452135230","mean_motion":15.27543452,"eccentricity":8.82e-5,"inclination_deg":43.0008,"raan_deg":356.051,"arg_perigee_deg":266.4572,"mean_anomaly_deg":93.6179,"bstar":0.00022312,"rev_number":13523,"period_min":94.269004139596,"perigee_km":482.55336981545,"apogee_km":483.76370234801,"semimajor_km":6861.2955360817,"source":"CELESTRAK","updated_at":"2026-05-25T13:38:18.706335Z"}}}